CZ-6A DEB

Satellite information

Favourite Embed

Satellite Type and Status

DEBRISIN ORBIT

Key statistics

Satellite CZ-6A DEB at a glance.

Uptime

1032

Days in orbit

Revolutions

≈ 14.6

Per day

Orbit

SSO

Sun Synchronous Orbit

Inclination

98.6

Latest

Satellite identification and parameters

Extended collection of information and parameters for CZ-6A DEB.

Object identification

Identified? True

Debris? True

Object name: CZ-6A DEB

International designator: 2022-151GX

Object number (NORAD): 54471

Object ID (CCSDS): 54471

Country: PEOPLES REPUBLIC OF CHINA (PRC)

Current information (Y/N): Y

RCS size: SMALL

Orbital parameters

Period: 98.447 minutes

Inclination: 98.6375 deg

SMA: 7062.566 km

Apoapsis: 745.161 km

Periapsis: 623.7 km

RAAN: 294.2336 deg

Eccentricy: 0.00859895

Argument of periapsis: 90.3433 deg

Mean anomaly: 270.7621 deg

Mean motion: 14.62712682 rev/day

Mean motion (dot): 0.00017259 rev/day2

B* drag term: 0.0032159132 1/REarth

Two-line elements (TLE)

Creation date: Sept. 6, 2025, 10:23 a.m.

Reference frame: TEME

Reference center: EARTH

Epoch: Sept. 6, 2025, 2:17 a.m. UTC

TLE line 0: 0 CZ-6A DEB

TLE line 1: 1 54471U 22151GX 25249.09544765 .00017259 00000-0 32159-2 0 9990

TLE line 2: 2 54471 98.6375 294.2336 0085990 90.3433 270.7621 14.62712682148549

Live tracking on map

Real-time ground track for satellite CZ-6A DEB.

In-orbit conjunctions

A list of the most updated potential collisions computed for object CZ-6A DEB.

Target Orbit TCA Probability of collision Miss distance Type
COSMOS 2251 DEB LEO 2025-03-02 20:45:13 0.0006177709 52.0 (m) DEBRIS
TIROS 8 LEO 2024-11-11 11:17:30 0.0002801466 162.0 (m) PAYLOAD

Associated space launch

Chinese satellite reported for atmospheric/ocean/environmental/spatial parameter research purposes, details TBD.

CZ-6A DEB was lifted into orbit during the mission ‘Long March 6A | Yunhai 3’, on board a Long March 6A space rocket.

The launch took place on Nov. 11, 2022, 10:52 p.m. from Launch Complex 9A.

For more information about the launch, click the button.

Launch to space Long March 6A | Yunhai 3
Long March 6A | Yunhai 3

Agency: N/A

Status: Launch Successful

Launch date: Nov. 11, 2022, 10:52 p.m. UTC

Rocket: Long March 6A

Launch pad: Launch Complex 9A

Location: Taiyuan Satellite Launch Center, People's Republic of China

...

Latest news about this satellite

There are no fresh news available about this satellite. Check back as we update our databases every day.


Newsletter sign-up

Weekly statistics, charts and insights to help you stay on top of the space industry.